Flag Weather past 2 weeks in Neunkirchen, Lower Austria, Austria

Now
39 °F

Chilly.


Feels Like: 39 °F
Forecast: 28 / 39 °F
Wind: 2 mph from Southeast

Location: Eisenstadt

Current Time: Nov 26, 2014 at 12:19:55 AM

Latest Report: Nov 25, 2014 at 11:00 PM


Visibility: N/A

Pressure: 30.33 "Hg

Humidity: 91%

Dew point: 36 °F

Location of NeunkirchenLocation

Historic Weather in Neunkirchen — Graph

°F

Neunkirchen temperature yesterday

Maximum temperature yesterday: 40 °F (at 12:00 PM)
Minimum temperature yesterday: 39 °F (at 5:00 AM)
Average temperature yesterday: 39 °F

Past Weeks' High & Low Weather Summary

 TemperatureHumidityPressure
High65 °F (Nov 11, 1:00 PM)99% (Nov 16, 10:00 PM)30.40 "Hg (Nov 16, 10:00 PM)
Low36 °F (Nov 21, 7:00 PM)60% (Nov 19, 1:00 PM)29.68 "Hg (Nov 18, 2:00 PM)
Average47 °F86%30.04 "Hg
* Reported Nov 10 11:00 PM — Nov 25 11:00 PM, Neunkirchen, Weather by CustomWeather, © 2014

Note: Actual official high and low records may vary slightly from our data, if they occured in-between our weather recording intervals... More about our weather records

Advertising

Neunkirchen weather history for previous 24 hours

 ConditionsComfort  
Time TempWeatherWind HumidityBarometerVisibility
11:00 PM
Nov 25
39 °FChilly.2 mph91%30.33 "HgN/A
10:00 PM39 °FFog.1 mph92%30.33 "Hg2 mi
9:00 PM39 °FChilly.1 mph91%30.34 "HgN/A
8:00 PM39 °FChilly.No wind90%30.34 "HgN/A
7:00 PM39 °FFog.1 mph90%30.34 "Hg1 mi
6:00 PM39 °FChilly.2 mph91%30.35 "HgN/A
5:00 PM39 °FChilly.2 mph92%30.34 "HgN/A
4:00 PM39 °FFog.2 mph92%30.34 "Hg1 mi
3:00 PM39 °FChilly.2 mph95%30.34 "HgN/A
2:00 PM40 °FChilly.2 mph96%30.34 "HgN/A
1:00 PM40 °FFog.2 mph95%30.34 "Hg1 mi
12:00 PM40 °FChilly.1 mph93%30.35 "HgN/A
11:00 AM40 °FChilly.1 mph93%30.36 "HgN/A
10:00 AM39 °FFog.1 mph95%30.36 "Hg1 mi
9:00 AM39 °FChilly.2 mph96%30.37 "HgN/A
8:00 AM39 °FChilly.1 mph95%30.36 "HgN/A
7:00 AM39 °FFog.2 mph95%30.36 "Hg1 mi
6:00 AM39 °FFog.1 mph95%30.36 "Hg1 mi
5:00 AM39 °FChilly.2 mph96%30.35 "HgN/A
4:00 AM39 °FFog.2 mph95%30.35 "Hg1 mi
3:00 AM39 °FChilly.2 mph93%30.34 "HgN/A
2:00 AM39 °FChilly.2 mph90%30.34 "HgN/A
1:00 AM39 °FOvercast.1 mph90%30.34 "Hg6 mi
12:00 AM39 °FChilly.2 mph93%30.34 "HgN/A
Weather by CustomWeather, © 2014

See weather overviewHow to use our weather pages